Time,TemperatureF,DewpointF,PressureIn,WindDirection,WindDirectionDegrees,WindSpeedMPH,WindSpeedGustMPH,Humidity,HourlyPrecipIn,Conditions,Clouds,dailyrainin,SoftwareType,DateUTC
2013-04-18 00:01:00,66.9,63.4,30.21,SE,140,0.0,6.8,89,0.00, ,,-99.99,VWS V12.07,2013-04-18 04:01:00,
2013-04-18 00:02:00,66.9,63.5,30.21,ESE,105,4.2,6.8,89,0.00, ,,-99.99,VWS V12.07,2013-04-18 04:02:00,
2013-04-18 00:03:00,66.7,63.2,30.21,SE,125,3.5,6.8,89,0.00, ,,-99.99,VWS V12.07,2013-04-18 04:03:00,
2013-04-18 00:06:00,67.1,63.6,30.21,SE,133,0.0,6.8,88,0.00, ,,-99.99,VWS V12.07,2013-04-18 04:06:00,
2013-04-18 00:07:00,66.3,62.8,30.21,SE,136,0.0,6.8,88,0.00, ,,-99.99,VWS V12.07,2013-04-18 04:07:00,
2013-04-18 00:12:00,67.2,63.4,30.21,ESE,118,4.3,6.8,88,0.00, ,,-99.99,VWS V12.07,2013-04-18 04:12:00,
2013-04-18 00:17:00,67.0,63.1,30.21,SE,133,0.0,6.0,87,0.00, ,,-99.99,VWS V12.07,2013-04-18 04:17:00,
2013-04-18 00:22:00,66.8,62.8,30.21,ESE,116,5.5,6.9,87,0.00, ,,-99.99,VWS V12.07,2013-04-18 04:22:00,
2013-04-18 00:27:00,67.0,63.0,30.21,ESE,108,0.0,6.9,87,0.00, ,,-99.99,VWS V12.07,2013-04-18 04:27:00,
2013-04-18 00:32:00,66.9,62.9,30.21,ESE,108,0.0,6.9,87,0.00, ,,-99.99,VWS V12.07,2013-04-18 04:32:00,
2013-04-18 00:37:00,66.7,62.7,30.21,ESE,108,0.0,0.0,87,0.00, ,,-99.99,VWS V12.07,2013-04-18 04:37:00,
2013-04-18 00:42:00,67.0,62.8,30.21,ESE,108,0.0,5.5,86,0.00, ,,-99.99,VWS V12.07,2013-04-18 04:42:00,
2013-04-18 00:47:00,66.8,62.6,30.21,ESE,118,0.0,5.5,86,0.00, ,,-99.99,VWS V12.07,2013-04-18 04:47:00,
2013-04-18 00:52:00,66.5,62.3,30.21,ESE,118,0.0,5.5,86,0.00, ,,-99.99,VWS V12.07,2013-04-18 04:52:00,
2013-04-18 00:57:00,67.3,63.2,30.21,ESE,115,5.6,6.3,87,0.00, ,,-99.99,VWS V12.07,2013-04-18 04:57:00,
2013-04-18 01:02:00,67.2,63.1,30.21,SE,128,3.5,7.0,87,0.00, ,,-99.99,VWS V12.07,2013-04-18 05:02:00,
2013-04-18 01:07:00,66.7,62.5,30.21,SE,126,5.0,7.3,86,0.00, ,,-99.99,VWS V12.07,2013-04-18 05:07:00,
2013-04-18 01:12:00,67.0,62.8,30.21,East,100,3.2,7.3,86,0.00, ,,-99.99,VWS V12.07,2013-04-18 05:12:00,
2013-04-18 01:17:00,66.9,62.8,30.21,ESE,116,0.0,0.0,87,0.00, ,,-99.99,VWS V12.07,2013-04-18 05:17:00,
2013-04-18 01:22:00,66.9,62.8,30.21,ESE,116,0.0,0.0,87,0.00, ,,-99.99,VWS V12.07,2013-04-18 05:22:00,
2013-04-18 01:27:00,66.8,62.8,30.21,SE,133,4.3,6.0,87,0.00, ,,-99.99,VWS V12.07,2013-04-18 05:27:00,
2013-04-18 01:32:00,66.6,62.8,30.21,ESE,108,0.0,6.8,87,0.00, ,,-99.99,VWS V12.07,2013-04-18 05:32:00,
2013-04-18 01:37:00,66.9,63.1,30.20,SE,145,5.3,6.0,88,0.00, ,,-99.99,VWS V12.07,2013-04-18 05:37:00,
2013-04-18 01:42:00,66.9,63.2,30.20,SE,139,5.6,7.7,88,0.00, ,,-99.99,VWS V12.07,2013-04-18 05:42:00,
2013-04-18 01:47:00,66.4,62.8,30.20,SE,138,5.3,7.7,88,0.00, ,,-99.99,VWS V12.07,2013-04-18 05:47:00,
2013-04-18 01:52:00,66.1,62.6,30.20,SE,138,5.4,7.8,88,0.00, ,,-99.99,VWS V12.07,2013-04-18 05:52:00,
2013-04-18 01:57:00,66.2,62.8,30.20,SE,133,5.7,6.2,89,0.00, ,,-99.99,VWS V12.07,2013-04-18 05:57:00,
2013-04-18 02:02:00,66.5,63.2,30.20,ESE,123,5.5,7.5,89,0.00, ,,-99.99,VWS V12.07,2013-04-18 06:02:00,
2013-04-18 02:07:00,66.2,63.1,30.19,SE,142,5.5,7.5,90,0.00, ,,-99.99,VWS V12.07,2013-04-18 06:07:00,
2013-04-18 02:12:00,65.9,62.9,30.19,SE,135,3.5,8.1,90,0.00, ,,-99.99,VWS V12.07,2013-04-18 06:12:00,
2013-04-18 02:18:00,66.1,63.2,30.19,SE,138,5.2,6.0,90,0.00, ,,-99.99,VWS V12.07,2013-04-18 06:18:00,
2013-04-18 02:23:00,66.0,63.2,30.19,SSE,159,0.0,6.0,91,0.00, ,,-99.99,VWS V12.07,2013-04-18 06:23:00,
2013-04-18 02:28:00,65.6,63.0,30.19,SSE,153,5.4,7.6,91,0.00, ,,-99.99,VWS V12.07,2013-04-18 06:28:00,
2013-04-18 02:33:00,65.3,62.7,30.18,SSE,164,7.1,8.6,91,0.00, ,,-99.99,VWS V12.07,2013-04-18 06:33:00,
2013-04-18 02:38:00,65.8,63.1,30.18,SE,145,0.0,6.5,91,0.00, ,,-99.99,VWS V12.07,2013-04-18 06:38:00,
2013-04-18 02:43:00,65.8,63.1,30.18,ESE,111,0.0,6.5,91,0.00, ,,-99.99,VWS V12.07,2013-04-18 06:43:00,
2013-04-18 02:48:00,66.0,63.3,30.18,SSE,147,5.3,6.5,91,0.00, ,,-99.99,VWS V12.07,2013-04-18 06:48:00,
2013-04-18 02:53:00,66.0,63.3,30.18,SE,133,5.2,6.5,91,0.00, ,,-99.99,VWS V12.07,2013-04-18 06:53:00,
2013-04-18 02:58:00,65.7,63.0,30.18,SE,126,4.7,7.0,91,0.00, ,,-99.99,VWS V12.07,2013-04-18 06:58:00,
2013-04-18 03:03:00,66.0,63.4,30.17,ESE,118,0.0,7.0,91,0.00, ,,-99.99,VWS V12.07,2013-04-18 07:03:00,
2013-04-18 03:08:00,65.8,63.3,30.17,SE,146,5.8,7.8,92,0.00, ,,-99.99,VWS V12.07,2013-04-18 07:08:00,
2013-04-18 03:13:00,65.5,63.0,30.17,SE,128,0.0,7.8,92,0.00, ,,-99.99,VWS V12.07,2013-04-18 07:13:00,
2013-04-18 03:18:00,65.8,63.2,30.18,South,177,0.0,3.4,91,0.00, ,,-99.99,VWS V12.07,2013-04-18 07:18:00,
2013-04-18 03:23:00,65.6,62.9,30.17,ESE,109,0.0,5.5,91,0.00, ,,-99.99,VWS V12.07,2013-04-18 07:23:00,
2013-04-18 03:28:00,65.3,62.4,30.17,SE,135,0.0,5.5,90,0.00, ,,-99.99,VWS V12.07,2013-04-18 07:28:00,
2013-04-18 03:33:00,65.8,62.7,30.17,SE,135,7.0,7.3,90,0.00, ,,-99.99,VWS V12.07,2013-04-18 07:33:00,
2013-04-18 03:38:00,66.6,63.5,30.17,SSE,149,0.0,6.4,90,0.00, ,,-99.99,VWS V12.07,2013-04-18 07:38:00,
2013-04-18 03:43:00,66.1,63.1,30.17,South,170,5.1,7.6,90,0.00, ,,-99.99,VWS V12.07,2013-04-18 07:43:00,
2013-04-18 03:48:00,66.2,63.4,30.18,SE,143,0.0,7.6,91,0.00, ,,-99.99,VWS V12.07,2013-04-18 07:48:00,
2013-04-18 03:53:00,65.8,63.0,30.18,ESE,122,0.0,7.6,91,0.00, ,,-99.99,VWS V12.07,2013-04-18 07:53:00,
2013-04-18 03:58:00,65.9,63.1,30.18,ESE,107,0.0,0.0,91,0.00, ,,-99.99,VWS V12.07,2013-04-18 07:58:00,
2013-04-18 04:03:00,65.9,63.1,30.18,ESE,107,0.0,0.0,91,0.00, ,,-99.99,VWS V12.07,2013-04-18 08:03:00,
2013-04-18 04:08:00,65.6,62.7,30.18,ESE,107,0.0,0.0,90,0.00, ,,-99.99,VWS V12.07,2013-04-18 08:08:00,
2013-04-18 04:13:00,66.3,63.4,30.18,ESE,107,0.0,0.0,90,0.00, ,,-99.99,VWS V12.07,2013-04-18 08:13:00,
2013-04-18 04:18:00,66.3,63.4,30.18,ESE,107,0.0,0.0,90,0.00, ,,-99.99,VWS V12.07,2013-04-18 08:18:00,
2013-04-18 04:23:00,65.9,63.0,30.18,ESE,107,0.0,0.0,90,0.00, ,,-99.99,VWS V12.07,2013-04-18 08:23:00,
2013-04-18 04:28:00,65.6,62.7,30.18,ESE,107,0.0,0.0,90,0.00, ,,-99.99,VWS V12.07,2013-04-18 08:28:00,
2013-04-18 04:33:00,65.4,62.6,30.18,ESE,107,0.0,0.0,91,0.00, ,,-99.99,VWS V12.07,2013-04-18 08:33:00,
2013-04-18 04:38:00,65.8,63.0,30.18,ESE,107,0.0,0.0,91,0.00, ,,-99.99,VWS V12.07,2013-04-18 08:38:00,
2013-04-18 04:43:00,65.4,62.7,30.18,ESE,107,0.0,0.0,91,0.00, ,,-99.99,VWS V12.07,2013-04-18 08:43:00,
2013-04-18 04:48:00,65.4,62.7,30.18,ESE,107,0.0,0.0,91,0.00, ,,-99.99,VWS V12.07,2013-04-18 08:48:00,
2013-04-18 04:53:00,65.4,62.7,30.18,ESE,107,0.0,0.0,91,0.00, ,,-99.99,VWS V12.07,2013-04-18 08:53:00,
2013-04-18 04:58:00,65.7,62.8,30.18,ESE,107,0.0,0.0,90,0.00, ,,-99.99,VWS V12.07,2013-04-18 08:58:00,
2013-04-18 05:03:00,65.8,62.8,30.18,ESE,107,0.0,0.0,90,0.00, ,,-99.99,VWS V12.07,2013-04-18 09:03:00,
2013-04-18 05:08:00,66.5,63.5,30.18,ESE,107,0.0,0.0,90,0.00, ,,-99.99,VWS V12.07,2013-04-18 09:08:00,
2013-04-18 05:13:00,66.2,63.2,30.18,ESE,107,0.0,0.0,90,0.00, ,,-99.99,VWS V12.07,2013-04-18 09:13:00,
2013-04-18 05:18:00,66.4,63.3,30.18,ESE,107,0.0,0.0,90,0.00, ,,-99.99,VWS V12.07,2013-04-18 09:18:00,
2013-04-18 05:23:00,65.9,63.0,30.18,ESE,107,0.0,0.0,90,0.00, ,,-99.99,VWS V12.07,2013-04-18 09:23:00,
2013-04-18 05:28:00,66.1,63.2,30.18,East,100,0.0,3.0,90,0.00, ,,-99.99,VWS V12.07,2013-04-18 09:28:00,
2013-04-18 05:33:00,66.6,63.6,30.19,ENE,63,0.0,5.6,90,0.00, ,,-99.99,VWS V12.07,2013-04-18 09:33:00,
2013-04-18 05:38:00,66.7,63.5,30.19,ENE,63,0.0,0.0,90,0.00, ,,-99.99,VWS V12.07,2013-04-18 09:38:00,
2013-04-18 05:43:00,66.7,63.6,30.19,ENE,63,0.0,0.0,90,0.00, ,,-99.99,VWS V12.07,2013-04-18 09:43:00,
2013-04-18 05:48:00,67.0,64.0,30.19,ENE,63,0.0,0.0,90,0.00, ,,-99.99,VWS V12.07,2013-04-18 09:48:00,
2013-04-18 05:53:00,66.8,63.8,30.19,ENE,63,0.0,0.0,90,0.00, ,,-99.99,VWS V12.07,2013-04-18 09:53:00,
2013-04-18 05:58:00,66.4,63.7,30.19,ENE,63,0.0,0.0,91,0.00, ,,-99.99,VWS V12.07,2013-04-18 09:58:00,
2013-04-18 06:03:00,66.0,63.3,30.19,ENE,63,0.0,0.0,91,0.00, ,,-99.99,VWS V12.07,2013-04-18 10:03:00,
2013-04-18 06:08:00,66.4,63.8,30.19,ENE,63,0.0,0.0,92,0.00, ,,-99.99,VWS V12.07,2013-04-18 10:08:00,
2013-04-18 06:13:00,66.7,64.1,30.19,ENE,63,0.0,0.0,91,0.00, ,,-99.99,VWS V12.07,2013-04-18 10:13:00,
2013-04-18 06:18:00,66.5,63.8,30.19,ESE,116,7.7,9.1,91,0.00, ,,-99.99,VWS V12.07,2013-04-18 10:18:00,
2013-04-18 06:23:00,66.0,63.2,30.19,East,95,5.3,9.1,91,0.00, ,,-99.99,VWS V12.07,2013-04-18 10:23:00,
2013-04-18 06:28:00,66.6,63.8,30.19,East,101,6.9,9.1,91,0.00, ,,-99.99,VWS V12.07,2013-04-18 10:28:00,
2013-04-18 06:33:00,66.3,63.4,30.20,ESE,108,7.5,9.1,90,0.00, ,,-99.99,VWS V12.07,2013-04-18 10:33:00,
2013-04-18 06:38:00,66.5,63.4,30.20,SE,135,7.0,10.5,90,0.00, ,,-99.99,VWS V12.07,2013-04-18 10:38:00,
2013-04-18 06:43:00,66.7,63.5,30.20,ESE,116,5.5,10.5,89,0.00, ,,-99.99,VWS V12.07,2013-04-18 10:43:00,
2013-04-18 06:48:00,66.1,63.0,30.20,ESE,115,0.0,10.5,90,0.00, ,,-99.99,VWS V12.07,2013-04-18 10:48:00,
2013-04-18 06:53:00,66.4,63.4,30.20,ESE,105,0.0,10.5,90,0.00, ,,-99.99,VWS V12.07,2013-04-18 10:53:00,
2013-04-18 06:58:00,67.0,64.0,30.20,ESE,121,5.2,7.7,90,0.00, ,,-99.99,VWS V12.07,2013-04-18 10:58:00,
2013-04-18 07:03:00,66.4,63.3,30.21,SE,132,6.3,7.8,90,0.00, ,,-99.99,VWS V12.07,2013-04-18 11:03:00,
2013-04-18 07:09:00,66.5,63.3,30.21,SE,143,3.3,7.8,90,0.00, ,,-99.99,VWS V12.07,2013-04-18 11:09:00,
2013-04-18 07:14:00,67.1,63.8,30.21,SE,133,6.7,7.8,89,0.00, ,,-99.99,VWS V12.07,2013-04-18 11:14:00,
2013-04-18 07:19:00,67.1,63.8,30.22,SE,126,6.2,6.6,89,0.00, ,,-99.99,VWS V12.07,2013-04-18 11:19:00,
2013-04-18 07:24:00,67.1,63.8,30.22,ESE,107,5.5,7.7,89,0.00, ,,-99.99,VWS V12.07,2013-04-18 11:24:00,
2013-04-18 07:29:00,66.8,63.5,30.21,SE,125,5.2,8.5,89,0.00, ,,-99.99,VWS V12.07,2013-04-18 11:29:00,
2013-04-18 07:34:00,67.3,64.0,30.21,SE,139,7.5,8.5,89,0.00, ,,-99.99,VWS V12.07,2013-04-18 11:34:00,
2013-04-18 07:39:00,67.1,63.7,30.21,SSE,149,5.3,8.9,89,0.00, ,,-99.99,VWS V12.07,2013-04-18 11:39:00,
2013-04-18 07:44:00,67.7,64.1,30.21,SSE,150,6.7,8.9,88,0.00, ,,-99.99,VWS V12.07,2013-04-18 11:44:00,
2013-04-18 07:49:00,67.7,63.9,30.21,SSE,153,7.0,9.2,88,0.00, ,,-99.99,VWS V12.07,2013-04-18 11:49:00,
2013-04-18 07:54:00,68.0,63.7,30.21,ESE,122,6.8,9.9,86,0.00, ,,-99.99,VWS V12.07,2013-04-18 11:54:00,
2013-04-18 07:59:00,68.4,63.8,30.21,South,184,7.7,10.7,85,0.00, ,,-99.99,VWS V12.07,2013-04-18 11:59:00,
2013-04-18 08:04:00,68.2,63.6,30.22,SSE,149,9.3,10.9,85,0.00, ,,-99.99,VWS V12.07,2013-04-18 12:04:00,
2013-04-18 08:09:00,68.3,63.4,30.22,SE,146,9.1,11.9,84,0.00, ,,-99.99,VWS V12.07,2013-04-18 12:09:00,
2013-04-18 08:14:00,68.4,62.9,30.22,SSE,164,8.8,12.0,83,0.00, ,,-99.99,VWS V12.07,2013-04-18 12:14:00,
2013-04-18 08:19:00,68.6,63.0,30.22,SSE,164,7.7,12.0,82,0.00, ,,-99.99,VWS V12.07,2013-04-18 12:19:00,
2013-04-18 08:24:00,68.9,62.5,30.22,SSE,166,9.4,13.0,80,0.00, ,,-99.99,VWS V12.07,2013-04-18 12:24:00,
2013-04-18 08:29:00,69.1,62.2,30.22,South,180,8.9,13.2,79,0.00, ,,-99.99,VWS V12.07,2013-04-18 12:29:00,
2013-04-18 08:34:00,69.9,62.1,30.22,SSW,197,8.0,13.7,76,0.00, ,,-99.99,VWS V12.07,2013-04-18 12:34:00,
2013-04-18 08:39:00,70.1,63.0,30.22,South,170,7.0,10.6,78,0.00, ,,-99.99,VWS V12.07,2013-04-18 12:39:00,
2013-04-18 08:44:00,69.7,62.3,30.22,South,171,6.4,11.7,77,0.00, ,,-99.99,VWS V12.07,2013-04-18 12:44:00,
2013-04-18 08:49:00,69.7,62.2,30.22,SSE,149,9.1,11.9,77,0.00, ,,-99.99,VWS V12.07,2013-04-18 12:49:00,
2013-04-18 08:54:00,69.4,62.1,30.22,SE,139,9.3,12.9,78,0.00, ,,-99.99,VWS V12.07,2013-04-18 12:54:00,
2013-04-18 08:59:00,69.6,62.0,30.22,SSE,159,8.6,12.1,77,0.00, ,,-99.99,VWS V12.07,2013-04-18 12:59:00,
2013-04-18 09:04:00,69.6,61.8,30.22,SSE,153,8.6,13.1,76,0.00, ,,-99.99,VWS V12.07,2013-04-18 13:04:00,
2013-04-18 09:09:00,70.5,62.0,30.22,SSE,149,11.2,13.1,75,0.00, ,,-99.99,VWS V12.07,2013-04-18 13:09:00,
2013-04-18 09:14:00,70.5,61.8,30.22,South,187,9.8,13.5,74,0.00, ,,-99.99,VWS V12.07,2013-04-18 13:14:00,
2013-04-18 09:19:00,70.6,61.3,30.23,South,178,8.9,15.0,72,0.00, ,,-99.99,VWS V12.07,2013-04-18 13:19:00,
2013-04-18 09:24:00,70.4,61.2,30.23,SSE,163,8.1,15.2,73,0.00, ,,-99.99,VWS V12.07,2013-04-18 13:24:00,
2013-04-18 09:29:00,70.6,61.2,30.23,South,170,8.6,15.2,72,0.00, ,,-99.99,VWS V12.07,2013-04-18 13:29:00,
2013-04-18 09:34:00,71.1,61.8,30.23,South,180,10.5,15.2,72,0.00, ,,-99.99,VWS V12.07,2013-04-18 13:34:00,
2013-04-18 09:39:00,70.9,61.2,30.23,South,177,10.4,15.6,71,0.00, ,,-99.99,VWS V12.07,2013-04-18 13:39:00,
2013-04-18 09:44:00,71.3,61.0,30.23,South,187,7.8,15.6,70,0.00, ,,-99.99,VWS V12.07,2013-04-18 13:44:00,
2013-04-18 09:49:00,71.8,61.7,30.23,SSE,163,8.5,15.6,70,0.00, ,,-99.99,VWS V12.07,2013-04-18 13:49:00,
2013-04-18 09:54:00,71.8,61.4,30.23,SSE,159,10.7,15.6,70,0.00, ,,-99.99,VWS V12.07,2013-04-18 13:54:00,
2013-04-18 09:59:00,71.5,61.1,30.23,SSE,161,8.3,12.7,70,0.00, ,,-99.99,VWS V12.07,2013-04-18 13:59:00,
2013-04-18 10:04:00,72.3,61.7,30.23,SSW,199,9.9,13.0,69,0.00, ,,-99.99,VWS V12.07,2013-04-18 14:04:00,
2013-04-18 10:09:00,71.9,61.3,30.23,South,190,7.6,13.4,69,0.00, ,,-99.99,VWS V12.07,2013-04-18 14:09:00,
2013-04-18 10:14:00,72.0,61.2,30.23,SE,146,8.8,13.4,69,0.00, ,,-99.99,VWS V12.07,2013-04-18 14:14:00,
2013-04-18 10:19:00,72.2,61.5,30.23,South,171,10.8,10.9,69,0.00, ,,-99.99,VWS V12.07,2013-04-18 14:19:00,
2013-04-18 10:24:00,72.1,61.4,30.23,SSE,159,7.3,12.5,69,0.00, ,,-99.99,VWS V12.07,2013-04-18 14:24:00,
2013-04-18 10:29:00,72.4,61.3,30.24,SSE,160,6.6,13.0,68,0.00, ,,-99.99,VWS V12.07,2013-04-18 14:29:00,
2013-04-18 10:34:00,72.5,61.1,30.24,SSW,202,12.9,13.0,67,0.00, ,,-99.99,VWS V12.07,2013-04-18 14:34:00,
2013-04-18 10:39:00,72.8,61.5,30.24,SSE,164,8.8,11.2,68,0.00, ,,-99.99,VWS V12.07,2013-04-18 14:39:00,
2013-04-18 10:44:00,72.7,61.3,30.24,SSE,154,8.8,12.4,68,0.00, ,,-99.99,VWS V12.07,2013-04-18 14:44:00,
2013-04-18 10:49:00,73.1,62.0,30.24,SE,139,10.4,12.4,68,0.00, ,,-99.99,VWS V12.07,2013-04-18 14:49:00,
2013-04-18 10:54:00,72.1,61.3,30.24,South,175,8.6,12.4,69,0.00, ,,-99.99,VWS V12.07,2013-04-18 14:54:00,
2013-04-18 10:59:00,72.3,61.5,30.24,SE,139,9.9,11.9,69,0.00, ,,-99.99,VWS V12.07,2013-04-18 14:59:00,
2013-04-18 11:04:00,72.2,61.5,30.24,SE,145,10.0,12.6,69,0.00, ,,-99.99,VWS V12.07,2013-04-18 15:04:00,
2013-04-18 11:09:00,72.2,61.3,30.24,SE,130,12.7,12.9,69,0.00, ,,-99.99,VWS V12.07,2013-04-18 15:09:00,
2013-04-18 11:14:00,72.3,61.5,30.24,SSE,154,8.8,13.8,69,0.00, ,,-99.99,VWS V12.07,2013-04-18 15:14:00,
2013-04-18 11:19:00,72.7,61.6,30.24,SSE,149,8.5,12.9,68,0.00, ,,-99.99,VWS V12.07,2013-04-18 15:19:00,
2013-04-18 11:24:00,72.6,61.5,30.24,SE,146,10.3,12.9,68,0.00, ,,-99.99,VWS V12.07,2013-04-18 15:24:00,
2013-04-18 11:29:00,72.6,61.5,30.24,SSE,154,7.9,12.9,68,0.00, ,,-99.99,VWS V12.07,2013-04-18 15:29:00,
2013-04-18 11:34:00,73.1,61.3,30.24,SE,146,11.2,13.9,67,0.00, ,,-99.99,VWS V12.07,2013-04-18 15:34:00,
2013-04-18 11:39:00,73.4,62.0,30.23,SSE,150,8.1,12.4,67,0.00, ,,-99.99,VWS V12.07,2013-04-18 15:39:00,
2013-04-18 11:44:00,73.0,61.2,30.24,SSE,159,8.9,12.7,67,0.00, ,,-99.99,VWS V12.07,2013-04-18 15:44:00,
2013-04-18 11:49:00,73.5,61.8,30.24,SE,145,8.7,12.7,67,0.00, ,,-99.99,VWS V12.07,2013-04-18 15:49:00,
2013-04-18 11:54:00,73.3,61.8,30.23,SSE,147,10.7,12.8,67,0.00, ,,-99.99,VWS V12.07,2013-04-18 15:54:00,
2013-04-18 11:59:00,72.4,61.3,30.23,SSE,167,10.9,13.2,68,0.00, ,,-99.99,VWS V12.07,2013-04-18 15:59:00,
2013-04-18 12:04:00,71.9,61.2,30.23,SSE,163,10.4,14.3,69,0.00, ,,-99.99,VWS V12.07,2013-04-18 16:04:00,
2013-04-18 12:09:00,72.7,62.0,30.23,SSE,153,11.6,14.3,69,0.00, ,,-99.99,VWS V12.07,2013-04-18 16:09:00,
2013-04-18 12:14:00,71.9,61.2,30.23,SSE,161,10.1,14.3,69,0.00, ,,-99.99,VWS V12.07,2013-04-18 16:14:00,
2013-04-18 12:19:00,72.6,61.8,30.23,SE,140,11.1,13.5,69,0.00, ,,-99.99,VWS V12.07,2013-04-18 16:19:00,
2013-04-18 12:24:00,72.5,61.6,30.23,SE,146,9.5,13.5,68,0.00, ,,-99.99,VWS V12.07,2013-04-18 16:24:00,
2013-04-18 12:29:00,72.6,61.6,30.23,SSE,149,11.4,13.8,68,0.00, ,,-99.99,VWS V12.07,2013-04-18 16:29:00,
2013-04-18 12:34:00,72.4,61.4,30.22,SSE,157,11.7,15.2,68,0.00, ,,-99.99,VWS V12.07,2013-04-18 16:34:00,
2013-04-18 12:39:00,72.4,61.4,30.22,SE,129,8.2,13.8,68,0.00, ,,-99.99,VWS V12.07,2013-04-18 16:39:00,
2013-04-18 12:45:00,72.7,62.0,30.22,South,173,6.1,13.8,69,0.00, ,,-99.99,VWS V12.07,2013-04-18 16:45:00,
2013-04-18 12:50:00,73.1,61.4,30.22,SE,139,6.5,13.8,67,0.00, ,,-99.99,VWS V12.07,2013-04-18 16:50:00,
2013-04-18 12:55:00,72.8,61.2,30.22,SSE,149,10.4,13.8,67,0.00, ,,-99.99,VWS V12.07,2013-04-18 16:55:00,
2013-04-18 13:00:00,72.7,61.7,30.22,South,174,7.2,13.6,68,0.00, ,,-99.99,VWS V12.07,2013-04-18 17:00:00,
2013-04-18 13:05:00,72.3,61.8,30.22,SE,135,7.7,13.6,70,0.00, ,,-99.99,VWS V12.07,2013-04-18 17:05:00,
2013-04-18 13:10:00,72.4,61.9,30.22,SSE,150,8.9,14.4,70,0.00, ,,-99.99,VWS V12.07,2013-04-18 17:10:00,
2013-04-18 13:15:00,72.2,62.3,30.22,SE,145,8.5,14.4,71,0.00, ,,-99.99,VWS V12.07,2013-04-18 17:15:00,
2013-04-18 13:20:00,71.8,62.2,30.21,SSE,161,6.8,13.2,72,0.00, ,,-99.99,VWS V12.07,2013-04-18 17:20:00,
2013-04-18 13:25:00,72.5,62.4,30.22,SSE,154,10.4,13.2,71,0.00, ,,-99.99,VWS V12.07,2013-04-18 17:25:00,
2013-04-18 13:30:00,72.6,62.5,30.22,South,173,7.8,13.7,71,0.00, ,,-99.99,VWS V12.07,2013-04-18 17:30:00,
2013-04-18 13:35:00,72.2,62.3,30.22,SE,138,12.0,13.7,71,0.00, ,,-99.99,VWS V12.07,2013-04-18 17:35:00,
2013-04-18 13:40:00,72.5,62.1,30.21,SE,138,11.9,12.5,70,0.00, ,,-99.99,VWS V12.07,2013-04-18 17:40:00,
2013-04-18 13:45:00,72.2,61.7,30.22,ESE,118,9.5,13.0,70,0.00, ,,-99.99,VWS V12.07,2013-04-18 17:45:00,
2013-04-18 13:50:00,72.2,62.4,30.21,SSE,159,9.1,13.0,71,0.00, ,,-99.99,VWS V12.07,2013-04-18 17:50:00,
2013-04-18 13:55:00,72.0,62.6,30.21,SSE,147,11.1,13.2,72,0.00, ,,-99.99,VWS V12.07,2013-04-18 17:55:00,
2013-04-18 14:00:00,71.8,62.8,30.21,SSE,166,8.3,13.2,73,0.00, ,,-99.99,VWS V12.07,2013-04-18 18:00:00,
2013-04-18 14:05:00,71.5,62.2,30.21,SSE,166,8.1,13.2,73,0.00, ,,-99.99,VWS V12.07,2013-04-18 18:05:00,
2013-04-18 14:10:00,71.6,62.1,30.21,South,184,9.2,14.4,72,0.00, ,,-99.99,VWS V12.07,2013-04-18 18:10:00,
2013-04-18 14:15:00,71.6,62.9,30.21,SSW,195,9.6,14.4,74,0.00, ,,-99.99,VWS V12.07,2013-04-18 18:15:00,
2013-04-18 14:20:00,71.8,63.2,30.21,SSE,160,8.7,11.0,74,0.00, ,,-99.99,VWS V12.07,2013-04-18 18:20:00,
2013-04-18 14:25:00,71.9,63.4,30.21,SSE,157,8.8,11.3,75,0.00, ,,-99.99,VWS V12.07,2013-04-18 18:25:00,
2013-04-18 14:30:00,71.9,63.4,30.21,SSE,149,11.4,13.0,75,0.00, ,,-99.99,VWS V12.07,2013-04-18 18:30:00,
2013-04-18 14:35:00,71.4,63.1,30.21,SE,140,10.5,13.0,75,0.00, ,,-99.99,VWS V12.07,2013-04-18 18:35:00,
2013-04-18 14:40:00,71.5,61.6,30.21,SSE,152,9.8,12.5,71,0.00, ,,-99.99,VWS V12.07,2013-04-18 18:40:00,
2013-04-18 14:45:00,71.6,62.5,30.21,SE,140,9.4,14.1,73,0.00, ,,-99.99,VWS V12.07,2013-04-18 18:45:00,
2013-04-18 14:50:00,71.6,62.3,30.20,SSE,167,7.8,14.1,73,0.00, ,,-99.99,VWS V12.07,2013-04-18 18:50:00,
2013-04-18 14:55:00,71.7,62.4,30.20,SSE,149,8.4,14.1,72,0.00, ,,-99.99,VWS V12.07,2013-04-18 18:55:00,
2013-04-18 15:00:00,71.3,62.3,30.20,SSE,154,12.2,14.8,73,0.00, ,,-99.99,VWS V12.07,2013-04-18 19:00:00,
2013-04-18 15:05:00,72.2,62.2,30.20,ESE,122,10.3,14.8,71,0.00, ,,-99.99,VWS V12.07,2013-04-18 19:05:00,
2013-04-18 15:10:00,72.3,63.0,30.19,SE,145,11.2,14.8,73,0.00, ,,-99.99,VWS V12.07,2013-04-18 19:10:00,
2013-04-18 15:15:00,71.8,62.3,30.19,SE,146,11.3,15.2,72,0.00, ,,-99.99,VWS V12.07,2013-04-18 19:15:00,
2013-04-18 15:20:00,72.2,63.2,30.19,SE,143,11.8,14.7,73,0.00, ,,-99.99,VWS V12.07,2013-04-18 19:20:00,
2013-04-18 15:25:00,71.5,63.3,30.19,SSE,159,11.0,14.7,75,0.00, ,,-99.99,VWS V12.07,2013-04-18 19:25:00,
2013-04-18 15:30:00,71.5,62.8,30.19,South,184,8.3,15.2,74,0.00, ,,-99.99,VWS V12.07,2013-04-18 19:30:00,
2013-04-18 15:35:00,71.5,62.6,30.18,SSE,163,9.1,15.2,74,0.00, ,,-99.99,VWS V12.07,2013-04-18 19:35:00,
2013-04-18 15:40:00,71.7,62.5,30.18,SE,138,12.0,14.8,73,0.00, ,,-99.99,VWS V12.07,2013-04-18 19:40:00,
2013-04-18 15:45:00,71.9,61.8,30.18,SE,142,9.9,14.8,70,0.00, ,,-99.99,VWS V12.07,2013-04-18 19:45:00,
2013-04-18 15:50:00,72.4,62.5,30.18,SE,142,11.7,16.2,71,0.00, ,,-99.99,VWS V12.07,2013-04-18 19:50:00,
2013-04-18 15:55:00,72.3,62.3,30.18,SSE,157,10.4,16.2,71,0.00, ,,-99.99,VWS V12.07,2013-04-18 19:55:00,
2013-04-18 16:00:00,72.5,62.2,30.18,SE,135,10.2,13.4,70,0.00, ,,-99.99,VWS V12.07,2013-04-18 20:00:00,
2013-04-18 16:05:00,72.8,62.4,30.18,SSE,159,10.7,14.8,70,0.00, ,,-99.99,VWS V12.07,2013-04-18 20:05:00,
2013-04-18 16:10:00,72.3,61.8,30.18,SSE,154,12.4,16.5,70,0.00, ,,-99.99,VWS V12.07,2013-04-18 20:10:00,
2013-04-18 16:15:00,71.7,61.8,30.17,SSE,168,8.5,16.5,71,0.00, ,,-99.99,VWS V12.07,2013-04-18 20:15:00,
2013-04-18 16:20:00,71.8,60.8,30.17,SE,130,14.2,16.4,68,0.00, ,,-99.99,VWS V12.07,2013-04-18 20:20:00,
2013-04-18 16:25:00,71.9,61.6,30.17,SE,139,11.7,17.8,70,0.00, ,,-99.99,VWS V12.07,2013-04-18 20:25:00,
2013-04-18 16:30:00,71.7,62.2,30.17,SSE,152,11.8,17.8,72,0.00, ,,-99.99,VWS V12.07,2013-04-18 20:30:00,
2013-04-18 16:35:00,71.3,61.9,30.17,SE,140,14.5,17.8,72,0.00, ,,-99.99,VWS V12.07,2013-04-18 20:35:00,
2013-04-18 16:40:00,70.9,62.4,30.17,SSE,152,11.1,17.0,74,0.00, ,,-99.99,VWS V12.07,2013-04-18 20:40:00,
2013-04-18 16:45:00,70.9,62.5,30.17,ESE,123,13.2,17.0,75,0.00, ,,-99.99,VWS V12.07,2013-04-18 20:45:00,
2013-04-18 16:50:00,70.9,62.7,30.17,SSE,156,9.5,17.0,75,0.00, ,,-99.99,VWS V12.07,2013-04-18 20:50:00,
2013-04-18 16:55:00,71.0,62.2,30.17,SE,129,14.5,17.0,74,0.00, ,,-99.99,VWS V12.07,2013-04-18 20:55:00,
2013-04-18 17:00:00,71.4,62.8,30.17,SSE,160,9.9,15.8,74,0.00, ,,-99.99,VWS V12.07,2013-04-18 21:00:00,
2013-04-18 17:05:00,70.7,62.0,30.17,SE,145,9.1,15.8,74,0.00, ,,-99.99,VWS V12.07,2013-04-18 21:05:00,
2013-04-18 17:10:00,71.3,62.6,30.17,ESE,119,10.3,15.8,74,0.00, ,,-99.99,VWS V12.07,2013-04-18 21:10:00,
2013-04-18 17:15:00,71.0,62.5,30.17,SSE,150,9.8,15.8,74,0.00, ,,-99.99,VWS V12.07,2013-04-18 21:15:00,
2013-04-18 17:20:00,71.3,63.2,30.17,South,174,8.3,12.2,76,0.00, ,,-99.99,VWS V12.07,2013-04-18 21:20:00,
2013-04-18 17:25:00,70.9,63.0,30.17,SSE,161,9.4,13.5,76,0.00, ,,-99.99,VWS V12.07,2013-04-18 21:25:00,
2013-04-18 17:30:00,70.1,62.5,30.16,SE,130,12.1,13.7,77,0.00, ,,-99.99,VWS V12.07,2013-04-18 21:30:00,
2013-04-18 17:35:00,70.4,63.1,30.16,SSE,154,11.3,14.2,78,0.00, ,,-99.99,VWS V12.07,2013-04-18 21:35:00,
2013-04-18 17:41:00,70.3,63.3,30.16,SSE,149,10.6,14.9,78,0.00, ,,-99.99,VWS V12.07,2013-04-18 21:41:00,
2013-04-18 17:46:00,69.6,62.3,30.16,SE,140,12.4,14.9,78,0.00, ,,-99.99,VWS V12.07,2013-04-18 21:46:00,
2013-04-18 17:51:00,70.1,62.9,30.15,SE,133,13.2,15.7,78,0.00, ,,-99.99,VWS V12.07,2013-04-18 21:51:00,
2013-04-18 17:56:00,70.1,63.0,30.15,SE,136,12.5,13.2,78,0.00, ,,-99.99,VWS V12.07,2013-04-18 21:56:00,
2013-04-18 18:01:00,69.8,63.0,30.15,SE,146,12.2,16.8,79,0.00, ,,-99.99,VWS V12.07,2013-04-18 22:01:00,
2013-04-18 18:06:00,69.8,63.2,30.15,SE,146,11.1,16.8,80,0.00, ,,-99.99,VWS V12.07,2013-04-18 22:06:00,
2013-04-18 18:11:00,69.5,63.3,30.15,South,188,10.4,16.8,81,0.00, ,,-99.99,VWS V12.07,2013-04-18 22:11:00,
2013-04-18 18:16:00,70.0,63.3,30.15,SSE,150,7.8,9.2,79,0.00, ,,-99.99,VWS V12.07,2013-04-18 22:16:00,
2013-04-18 18:21:00,69.9,62.7,30.15,SSE,152,10.3,16.2,78,0.00, ,,-99.99,VWS V12.07,2013-04-18 22:21:00,
2013-04-18 18:26:00,70.1,62.9,30.14,South,174,7.2,16.2,78,0.00, ,,-99.99,VWS V12.07,2013-04-18 22:26:00,
2013-04-18 18:31:00,70.4,63.0,30.14,SSW,197,12.4,16.2,77,0.00, ,,-99.99,VWS V12.07,2013-04-18 22:31:00,
2013-04-18 18:36:00,70.3,63.0,30.14,South,173,13.0,13.1,78,0.00, ,,-99.99,VWS V12.07,2013-04-18 22:36:00,
2013-04-18 18:41:00,69.9,62.5,30.14,SSE,157,13.0,16.3,77,0.00, ,,-99.99,VWS V12.07,2013-04-18 22:41:00,
2013-04-18 18:46:00,70.5,63.3,30.14,South,188,12.1,16.3,78,0.00, ,,-99.99,VWS V12.07,2013-04-18 22:46:00,
2013-04-18 18:51:00,69.6,62.4,30.14,South,173,13.0,16.3,78,0.00, ,,-99.99,VWS V12.07,2013-04-18 22:51:00,
2013-04-18 18:56:00,69.5,62.5,30.14,SSE,153,12.7,12.7,78,0.00, ,,-99.99,VWS V12.07,2013-04-18 22:56:00,
2013-04-18 19:01:00,69.6,62.8,30.13,SSE,147,10.6,13.8,79,0.00, ,,-99.99,VWS V12.07,2013-04-18 23:01:00,
2013-04-18 19:06:00,69.3,62.6,30.13,South,177,7.5,13.8,79,0.00, ,,-99.99,VWS V12.07,2013-04-18 23:06:00,
2013-04-18 19:11:00,69.8,63.3,30.13,South,187,11.4,13.8,80,0.00, ,,-99.99,VWS V12.07,2013-04-18 23:11:00,
2013-04-18 19:16:00,69.2,63.0,30.14,SSE,149,10.1,10.8,81,0.00, ,,-99.99,VWS V12.07,2013-04-18 23:16:00,
2013-04-18 19:21:00,68.8,63.0,30.13,SSE,161,7.6,12.9,82,0.00, ,,-99.99,VWS V12.07,2013-04-18 23:21:00,
2013-04-18 19:26:00,68.5,63.0,30.13,South,177,9.1,12.9,82,0.00, ,,-99.99,VWS V12.07,2013-04-18 23:26:00,
2013-04-18 19:31:00,68.3,62.9,30.13,South,185,7.5,12.9,83,0.00, ,,-99.99,VWS V12.07,2013-04-18 23:31:00,
2013-04-18 19:36:00,68.2,63.1,30.14,SSE,168,7.6,9.5,84,0.00, ,,-99.99,VWS V12.07,2013-04-18 23:36:00,
2013-04-18 19:41:00,68.5,63.7,30.13,South,187,10.2,10.8,84,0.00, ,,-99.99,VWS V12.07,2013-04-18 23:41:00,
2013-04-18 19:46:00,68.3,63.7,30.13,SSE,167,6.9,11.8,85,0.00, ,,-99.99,VWS V12.07,2013-04-18 23:46:00,
2013-04-18 19:51:00,68.2,63.8,30.13,SSE,164,9.1,11.8,86,0.00, ,,-99.99,VWS V12.07,2013-04-18 23:51:00,
2013-04-18 19:56:00,67.2,62.8,30.14,South,184,9.8,9.8,86,0.00, ,,-99.99,VWS V12.07,2013-04-18 23:56:00,
2013-04-18 20:01:00,67.9,63.5,30.14,SSE,167,10.3,12.9,86,0.00, ,,-99.99,VWS V12.07,2013-04-19 00:01:00,
2013-04-18 20:06:00,67.4,63.0,30.14,SSE,149,9.1,14.0,86,0.00, ,,-99.99,VWS V12.07,2013-04-19 00:06:00,
2013-04-18 20:11:00,67.1,62.6,30.14,South,173,9.1,14.0,86,0.00, ,,-99.99,VWS V12.07,2013-04-19 00:11:00,
2013-04-18 20:16:00,67.9,63.2,30.14,South,177,11.7,11.7,85,0.00, ,,-99.99,VWS V12.07,2013-04-19 00:16:00,
2013-04-18 20:21:00,68.1,63.4,30.14,SSE,167,8.8,13.9,85,0.00, ,,-99.99,VWS V12.07,2013-04-19 00:21:00,
2013-04-18 20:26:00,67.9,63.2,30.14,SE,138,11.8,13.9,85,0.00, ,,-99.99,VWS V12.07,2013-04-19 00:26:00,
2013-04-18 20:31:00,68.5,63.8,30.14,SSW,202,6.3,13.9,85,0.00, ,,-99.99,VWS V12.07,2013-04-19 00:31:00,
2013-04-18 20:36:00,68.0,63.3,30.14,South,173,8.6,8.6,85,0.00, ,,-99.99,VWS V12.07,2013-04-19 00:36:00,
2013-04-18 20:41:00,67.9,63.2,30.14,SSE,161,6.6,12.3,85,0.00, ,,-99.99,VWS V12.07,2013-04-19 00:41:00,
2013-04-18 20:46:00,67.9,63.1,30.14,SSE,159,10.6,14.0,85,0.00, ,,-99.99,VWS V12.07,2013-04-19 00:46:00,
2013-04-18 20:51:00,68.3,63.4,30.14,SSE,152,9.5,14.0,84,0.00, ,,-99.99,VWS V12.07,2013-04-19 00:51:00,
2013-04-18 20:56:00,68.4,63.7,30.13,SSE,160,6.7,8.4,85,0.00, ,,-99.99,VWS V12.07,2013-04-19 00:56:00,
2013-04-18 21:01:00,68.5,63.6,30.13,SSW,201,9.3,12.6,84,0.00, ,,-99.99,VWS V12.07,2013-04-19 01:01:00,
2013-04-18 21:06:00,68.4,63.5,30.14,South,184,8.1,12.6,84,0.00, ,,-99.99,VWS V12.07,2013-04-19 01:06:00,
2013-04-18 21:11:00,68.3,63.5,30.14,South,188,8.7,13.3,85,0.00, ,,-99.99,VWS V12.07,2013-04-19 01:11:00,
2013-04-18 21:16:00,68.3,63.5,30.14,SSW,204,8.0,9.9,85,0.00, ,,-99.99,VWS V12.07,2013-04-19 01:16:00,
2013-04-18 21:21:00,68.4,63.7,30.14,South,185,8.6,13.0,85,0.00, ,,-99.99,VWS V12.07,2013-04-19 01:21:00,
2013-04-18 21:26:00,68.0,63.3,30.14,South,178,9.9,14.0,85,0.00, ,,-99.99,VWS V12.07,2013-04-19 01:26:00,
2013-04-18 21:31:00,68.1,63.7,30.14,SSE,160,11.4,14.0,86,0.00, ,,-99.99,VWS V12.07,2013-04-19 01:31:00,
2013-04-18 21:36:00,68.0,63.9,30.14,South,175,9.3,9.3,87,0.00, ,,-99.99,VWS V12.07,2013-04-19 01:36:00,
2013-04-18 21:41:00,68.5,64.3,30.14,SSW,198,9.6,13.7,87,0.00, ,,-99.99,VWS V12.07,2013-04-19 01:41:00,
2013-04-18 21:46:00,67.9,63.9,30.14,South,182,8.7,14.5,87,0.00, ,,-99.99,VWS V12.07,2013-04-19 01:46:00,
2013-04-18 21:51:00,68.3,64.4,30.14,SSE,164,10.8,14.5,87,0.00, ,,-99.99,VWS V12.07,2013-04-19 01:51:00,
2013-04-18 21:56:00,67.9,64.2,30.15,SW,222,7.8,10.7,88,0.00, ,,-99.99,VWS V12.07,2013-04-19 01:56:00,
2013-04-18 22:01:00,68.3,64.5,30.14,South,185,8.3,14.3,88,0.00, ,,-99.99,VWS V12.07,2013-04-19 02:01:00,
2013-04-18 22:06:00,67.8,64.0,30.15,SE,130,7.8,14.3,88,0.00, ,,-99.99,VWS V12.07,2013-04-19 02:06:00,
2013-04-18 22:11:00,68.3,64.5,30.14,SSW,204,3.4,16.2,88,0.00, ,,-99.99,VWS V12.07,2013-04-19 02:11:00,
2013-04-18 22:16:00,68.0,64.1,30.14,SSE,167,14.0,14.0,87,0.00, ,,-99.99,VWS V12.07,2013-04-19 02:16:00,
2013-04-18 22:21:00,68.8,64.6,30.14,SE,146,14.5,16.5,86,0.00, ,,-99.99,VWS V12.07,2013-04-19 02:21:00,
2013-04-18 22:26:00,68.8,64.6,30.14,South,177,11.7,16.5,86,0.00, ,,-99.99,VWS V12.07,2013-04-19 02:26:00,
2013-04-18 22:31:00,68.7,64.6,30.14,SE,138,11.4,16.5,87,0.00, ,,-99.99,VWS V12.07,2013-04-19 02:31:00,
2013-04-18 22:36:00,68.8,64.6,30.13,SSE,161,13.2,13.2,86,0.00, ,,-99.99,VWS V12.07,2013-04-19 02:36:00,
2013-04-18 22:41:00,68.8,64.7,30.13,SSE,152,13.9,16.7,87,0.00, ,,-99.99,VWS V12.07,2013-04-19 02:41:00,
2013-04-18 22:46:00,68.2,64.0,30.13,SSE,166,13.7,16.7,86,0.00, ,,-99.99,VWS V12.07,2013-04-19 02:46:00,
2013-04-18 22:51:00,68.9,64.7,30.13,SSE,154,13.2,16.7,87,0.00, ,,-99.99,VWS V12.07,2013-04-19 02:51:00,
2013-04-18 22:56:00,68.0,64.0,30.13,South,174,7.8,7.8,87,0.00, ,,-99.99,VWS V12.07,2013-04-19 02:56:00,
2013-04-18 23:01:00,68.4,64.4,30.13,SSE,163,9.4,13.0,87,0.00, ,,-99.99,VWS V12.07,2013-04-19 03:01:00,
2013-04-18 23:06:00,68.4,64.4,30.12,SSE,153,9.8,14.1,87,0.00, ,,-99.99,VWS V12.07,2013-04-19 03:06:00,
2013-04-18 23:12:00,68.4,64.7,30.13,SSE,168,8.1,15.2,88,0.00, ,,-99.99,VWS V12.07,2013-04-19 03:12:00,
2013-04-18 23:17:00,68.5,64.9,30.12,SSE,156,12.1,12.6,88,0.00, ,,-99.99,VWS V12.07,2013-04-19 03:17:00,
2013-04-18 23:22:00,68.2,64.7,30.12,SSE,149,8.8,14.3,88,0.00, ,,-99.99,VWS V12.07,2013-04-19 03:22:00,
2013-04-18 23:27:00,68.3,64.9,30.12,SSE,149,10.2,14.3,89,0.00, ,,-99.99,VWS V12.07,2013-04-19 03:27:00,
2013-04-18 23:32:00,68.4,65.1,30.12,SSE,156,11.4,14.3,89,0.00, ,,-99.99,VWS V12.07,2013-04-19 03:32:00,
2013-04-18 23:37:00,68.5,65.1,30.12,SSE,160,14.4,14.7,89,0.00, ,,-99.99,VWS V12.07,2013-04-19 03:37:00,
2013-04-18 23:42:00,68.2,64.8,30.12,SSE,147,14.8,14.8,89,0.00, ,,-99.99,VWS V12.07,2013-04-19 03:42:00,
2013-04-18 23:47:00,68.2,64.7,30.12,SSE,161,15.8,17.5,89,0.00, ,,-99.99,VWS V12.07,2013-04-19 03:47:00,
2013-04-18 23:52:00,68.3,64.9,30.11,SSE,163,11.7,17.5,89,0.00, ,,-99.99,VWS V12.07,2013-04-19 03:52:00,
2013-04-18 23:57:00,68.6,65.2,30.11,SSE,149,15.7,16.3,89,0.00, ,,-99.99,VWS V12.07,2013-04-19 03:57:00,